Weather Service Report


988 
ASUS46 KSTO 200315
RWRCA 

NORTHERN AND CENTRAL CA REGIONAL WEATHER ROUNDUP
NATIONAL WEATHER SERVICE SACRAMENTO CA 
800 PM PDT TUE JUN 19 2018

NOTE: FAIR INDICATES FEW OR NO CLOUDS BELOW 12,000 FEET WITH NO
SIGNIFICANT WEATHER AND/OR OBSTRUCTIONS TO VISIBILITY.

CAZ001-003-200400-
NORTHWEST AREA
  
CITY           SKY/WX    TMP DP  RH WIND       PRES   REMARKS
CRESCENT CITY  CLOUDY    55  52  89 NW5       30.08S                  
UKIAH          CLEAR     80  43  26 N12       29.97R                  
$$

CAZ006-505>513-200400-
BAY AREA
  
CITY           SKY/WX    TMP DP  RH WIND       PRES   REMARKS
SANTA ROSA     CLEAR     61  52  72 SE12      29.97R                  
SAN RAFAEL     N/A       69  MM  MM MISG
NAPA           CLEAR     62  53  72 SW15      29.98R                  
CONCORD        CLEAR     74  50  42 W15       29.96S                  
OAKLAND CITY   N/A       MM  MM  MM MISG
OAKLAND        PTCLDY    58  53  84 W14       30.02S                  
SAN FRAN CITY  N/A       55  MM  85 MISG
SAN FRAN ARPT  MOCLDY    58  50  75 W15       30.02S                  
LIVERMORE      CLEAR     68  58  70 W10       29.97R                  
HAYWARD        PTCLDY    59  52  77 W13       30.02S                  
REDWOOD CITY   N/A       64  MM  60 MISG
MOFFETT ARPT   CLEAR     62  55  77 N14       30.03R                  
SAN JOSE ARPT  PTCLDY    65  54  67 NW14      30.01R                  
$$
CAZ034-037-514>518-200400-
CENTRAL COAST
  
CITY           SKY/WX    TMP DP  RH WIND       PRES   REMARKS
WATSONVILLE    CLEAR     58  52  80 E7        30.01S                  
SALINAS        CLOUDY    58  52  80 NW12      30.02R                  
MONTEREY       CLOUDY    56  51  84 SW8       30.04S                  
SAN LUIS OBISP CLEAR     55  51  86 NW14      29.98R                  
SANTA MARIA    MOCLDY    55  52  89 NW12      29.99R FOG              
$$
CAZ015-016-200400-
NORTHERN SACRAMENTO VALLEY
  
CITY           SKY/WX    TMP DP  RH WIND       PRES   REMARKS
REDDING        PTCLDY    95  41  15 S8        29.86S HX  91           
RED BLUFF      PTCLDY    93  47  20 S5        29.87S                  
OROVILLE       CLEAR     92  50  23 S5        29.88S                  
$$
CAZ016>018-200400-
SOUTHERN SACRAMENTO VALLEY
  
CITY           SKY/WX    TMP DP  RH WIND       PRES   REMARKS
AUBURN         CLEAR     84  45  24 W3        29.97S                  
BEALE AFB      CLEAR     86  57  37 S6        29.86S                  
LINCOLN        FAIR      88  54  31 SW9       29.88R                  
MARYSVILLE     CLEAR     88  54  31 S6        29.87S                  
SAC INTL ARPT  CLEAR     83  61  47 S12       29.88R                  
MATHER AIRPORT CLEAR     84  55  37 SW13      29.88S                  
DOWNTOWN SAC   N/A       81  MM  MM MISG
SAC EXEC ARPT  CLEAR     78  55  44 SW14      29.90R                  
VACAVILLE      CLEAR     81  52  36 SW8       29.91R                  
TRAVIS AFB     CLEAR     68  52  56 SW23      29.90R                  
$$
CAZ019>021-200400-
SAN JOAQUIN VALLEY
  
CITY           SKY/WX    TMP DP  RH WIND       PRES   REMARKS
STOCKTON       CLEAR     84  57  39 W12       29.91R                  
MODESTO        CLEAR     87  53  31 NW16      29.89R                  
MERCED         CLEAR     86  56  35 NW8       29.88F                  
LEMOORE        CLEAR     88  56  33 N12       29.89R                  
FRESNO         CLEAR     90  50  25 NW12      29.89R                  
HANFORD        CLEAR     89  54  30 NW9       29.89R                  
PORTERVILLE    CLEAR     88  59  37 NW7       29.90R                  
BAKERSFIELD    CLEAR     89  55  31 NW8       29.89R                  
$$
CAZ011-012-071-200400-
NORTHERN MOUNTAINS
  
CITY           SKY/WX    TMP DP  RH WIND       PRES   REMARKS
YREKA          PTCLDY    85  34  16 CALM      30.01R                  
MOUNT SHASTA   PTCLDY    73  50  44 CALM      30.06R                  
ALTURAS        CLEAR     75  40  28 E6        30.12S                  
$$
CAZ011-012-071-200400-
SIERRA NEVADA MTNS
  
CITY           SKY/WX    TMP DP  RH WIND       PRES   REMARKS
BLUE CANYON    CLEAR     68  50  52 VRB3      30.21S                  
TRUCKEE        CLEAR     70  48  46 W8        30.23R                  
TAHOE VLY ARPT CLEAR     62  46  55 CALM      30.23R                  
MAMMOTH LAKES  FAIR      70  39  32 NW8       30.25R                  
$$
  

Return to Home page


Western Regional Climate Center, wrcc@dri.edu